Content
SEND FEEDBACK

Daily
Averages
Monthly
Summary
Mexico

PLAYA DEL CARMEN, QUINTANA ROO


Home > North America > Mexico > Quintana Roo
Elevation: 30 feet     Latitude: 20 38N     Longitude: 087 04W

WEATHER
 
SELECT A DAY
Number of Records: 200,477;   Date Range: 2/21/06 - 9/30/14
 
SHARE

PRINT THIS DATA

[ ← Previous Day ]
WEATHER ALMANAC - MARCH 24, 2014
[ Next Day → ]
[ °C ]   °F
Weather ElementAverageHighLow
Temperature69.2 °F73.4 °F (12:35 pm)66.2 °F (8:15 am)
Dewpoint25.6 °F69.8 °F (3:15 am) (7:00 pm)
Humidity81.2 %100 % (3:15 am)65 % (2:55 pm)
Barometer30.02 in30.10 in (11:15 am)29.96 in (5:15 pm)
Wind Speed3.4 mph8.1 mph (3:35 am)
Weather ElementAverage
Visibility8.4 mi
Wind DirectionESE (106.6 °)

Weather ElementTotal
Precipitation0.06 in
Cooling Degree Days4.8 (Base 65)
Growing Degree Days19.8 (Base 50)
Averaged from 71 records on March 24, 2014
WEATHER CONDITIONS BREAKOUT
WIND DIRECTION BREAKOUT
WEATHER BY HOUR - MARCH 24, 2014
[ °C ]   °F
Local TimeTemperatureDewpointHumidityBarometerVisibilityWind DirectionWind SpeedGust SpeedPrecipitationEventsConditions
12:35 AM69.8 °F66.2 °F88 %30.04 in10.0 miWNW (290°)4.6 mphClear
12:55 AM69.8 °F68.0 °F94 %30.05 in10.0 miNW (310°)6.9 mphScattered Clouds
1:15 AM69.8 °F68.0 °F94 %30.06 in10.0 miNW (320°)6.9 mphMostly Cloudy
1:35 AM71.6 °F68.0 °F88 %30.05 in10.0 miNW (310°)4.6 mphMostly Cloudy
1:55 AM69.8 °F66.2 °F88 %30.05 in10.0 miNNW (330°)5.8 mphScattered Clouds
2:15 AM69.8 °F66.2 °F88 %30.05 in10.0 miNW (320°)6.9 mphScattered Clouds
2:35 AM69.8 °F66.2 °F88 %30.04 in10.0 miNNW (340°)3.5 mphMostly Cloudy
2:55 AM69.8 °F68.0 °F94 %30.05 in10.0 miNNW (330°)4.6 mphRainLight Rain
3:15 AM69.8 °F69.8 °F100 %30.05 in10.0 miNW (320°)4.6 mphRainRain
3:35 AM69.8 °F0.0 °F30.02 in10.0 miNorth (10°)8.1 mph0.02 inRainRain
3:55 AM69.8 °F0.0 °F30.03 in10.0 miNW (320°)4.6 mph0.03 inScattered Clouds
4:15 AM69.8 °F0.0 °F30.07 in10.0 miWNW (290°)5.8 mphRainLight Rain
4:35 AM68.0 °F0.0 °F30.04 in7.0 miCalmRainRain
4:55 AM68.0 °F0.0 °F30.05 in10.0 miNW (320°)4.6 mph0.01 inRainLight Rain
5:15 AM68.0 °F0.0 °F30.05 in10.0 miCalmRainLight Rain
5:35 AM68.0 °F0.0 °F30.05 in7.0 miNorth (360°)4.6 mphRainLight Rain
5:55 AM68.0 °F0.0 °F30.05 in7.0 miNorth (10°)3.5 mphRainRain
6:15 AM68.0 °F0.0 °F30.05 in10.0 miNE (40°)4.6 mphRainLight Rain
6:35 AM68.0 °F0.0 °F30.03 in10.0 miNE (40°)4.6 mphRainLight Rain
6:55 AM68.0 °F0.0 °F30.04 in10.0 miNE (40°)3.5 mphLight Drizzle
7:15 AM68.0 °F0.0 °F30.02 in7.0 miNE (40°)5.8 mphRainLight Rain
7:35 AM68.0 °F0.0 °F30.03 in7.0 miNNE (20°)4.6 mphMostly Cloudy
7:55 AM68.0 °F0.0 °F30.04 in5.0 miNNE (30°)4.6 mphHaze
8:15 AM66.2 °F0.0 °F30.05 in7.0 miNNE (20°)3.5 mphOvercast
8:35 AM66.2 °F0.0 °F30.05 in10.0 miNE (50°)3.5 mphMostly Cloudy
8:55 AM68.0 °F0.0 °F30.04 in10.0 miESE (120°)3.5 mphScattered Clouds
9:15 AM68.0 °F0.0 °F30.05 in10.0 miCalmClear
9:35 AM68.0 °F0.0 °F30.08 in10.0 miNNE (30°)3.5 mphMostly Cloudy
9:55 AM68.0 °F0.0 °F30.09 in10.0 miNNE (20°)4.6 mphOvercast
10:15 AM69.8 °F0.0 °F30.09 in10.0 miNNE (30°)3.5 mphOvercast
10:35 AM69.8 °F0.0 °F30.09 in10.0 miENE (70°)5.8 mphOvercast
10:55 AM69.8 °F66.2 °F88 %30.09 in10.0 miENE (70°)5.8 mphMostly Cloudy
11:15 AM69.8 °F64.4 °F83 %30.10 in10.0 miCalmOvercast
11:35 AM69.8 °F64.4 °F83 %30.09 in10.0 miNE (50°)4.6 mphMostly Cloudy
11:55 AM69.8 °F64.4 °F83 %30.10 in10.0 miNE (40°)5.8 mphMostly Cloudy
12:15 PM71.6 °F64.4 °F78 %30.10 in10.0 miNNE (20°)5.8 mphOvercast
12:35 PM73.4 °F62.6 °F69 %30.09 in10.0 miENE (70°)6.9 mphOvercast
12:55 PM71.6 °F62.6 °F73 %30.07 in10.0 miNE (50°)6.9 mphOvercast
1:15 PM73.4 °F62.6 °F69 %30.06 in10.0 miEast (80°)3.5 mphOvercast
1:35 PM71.6 °F62.6 °F73 %30.04 in10.0 miESE (110°)5.8 mphOvercast
1:55 PM73.4 °F62.6 °F69 %30.03 in10.0 miEast (80°)4.6 mphOvercast
2:15 PM73.4 °F62.6 °F69 %30.02 in10.0 miEast (80°)4.6 mphOvercast
2:35 PM73.4 °F62.6 °F69 %30.01 in10.0 miEast (100°)4.6 mphOvercast
2:55 PM73.4 °F60.8 °F65 %30.00 in10.0 miCalmMostly Cloudy
3:15 PM73.4 °F60.8 °F65 %30.00 in10.0 miCalmRainLight Rain
3:35 PM73.4 °F60.8 °F65 %29.99 in10.0 miCalmRainLight Rain
3:55 PM71.6 °F62.6 °F73 %30.00 in10.0 miWSW (240°)5.8 mphRainLight Rain
4:15 PM71.6 °F66.2 °F83 %29.99 in7.0 miSouth (190°)4.6 mphRainLight Rain
4:35 PM69.8 °F68.0 °F94 %29.98 in5.0 miCalmRainRain
4:55 PM69.8 °F69.8 °F100 %29.97 in5.0 miSSW (200°)3.5 mphRainLight Rain
5:15 PM69.8 °F0.0 °F29.96 in4.0 miSouth (170°)4.6 mphRainLight Rain
5:35 PM68.0 °F0.0 °F29.96 in5.0 miSSE (160°)3.5 mphLight Drizzle
5:55 PM68.0 °F0.0 °F29.96 in5.0 miCalmLight Drizzle
6:15 PM68.0 °F0.0 °F29.96 in7.0 miCalmRainLight Rain
6:35 PM68.0 °F0.0 °F29.96 in5.0 miCalmLight Drizzle
6:55 PM68.0 °F0.0 °F29.97 in5.0 miCalmHaze
7:15 PM68.0 °F0.0 °F29.97 in4.0 miSouth (190°)4.6 mphRainLight Rain
7:35 PM68.0 °F0.0 °F29.98 in5.0 miCalmRainLight Rain
7:55 PM68.0 °F0.0 °F29.98 in5.0 miCalmRainLight Rain
8:15 PM68.0 °F0.0 °F29.98 in5.0 miSSW (200°)3.5 mphRainLight Rain
8:35 PM68.0 °F0.0 °F29.98 in7.0 miCalmDrizzle
8:55 PM68.0 °F0.0 °F29.98 in7.0 miSouth (190°)3.5 mphLight Drizzle
9:15 PM68.0 °F0.0 °F29.98 in7.0 miSouth (170°)4.6 mphOvercast
9:35 PM68.0 °F0.0 °F29.98 in5.0 miCalmRainLight Rain
9:55 PM66.2 °F0.0 °F29.99 in7.0 miCalmRainRain
10:15 PM66.2 °F0.0 °F29.98 in7.0 miCalmRainRain
10:35 PM66.2 °F0.0 °F29.97 in7.0 miSouth (180°)3.5 mphRainLight Rain
10:55 PM66.2 °F0.0 °F29.98 in10.0 miCalmRainRain
11:15 PM66.2 °F0.0 °F29.97 in10.0 miSSW (200°)4.6 mphLight Drizzle
11:35 PM66.2 °F0.0 °F29.97 in10.0 miCalmLight Drizzle
11:55 PM66.2 °F0.0 °F29.96 in7.0 miCalmRainLight Rain
Hourly data recorded from KPCM, located miles away from Playa del Carmen, Quintana Roo







STORIES FROM OUR PARTNERS